星链-32114 (STARLINK-32114)

导读

STARLINK-32114是美国太空探索技术公司星链星座的成员,于2024年7月28日发射入轨。星链计划旨在构建全球卫星互联网星座,为全球多地提供高速低延迟互联网服务。该卫星延续了星链卫星的技术设计,加入低轨星座运行网络,服务全球宽带互联网覆盖,进一步扩充星链星座的规模与服务能力。

基本信息
目录编号:
60287
目录名称:
STARLINK-32114
国际标识:
2024-132K
轨道中心:
EARTH
卫星名称:
星链-32114 (STARLINK-32114)
卫星全名:
星链-32114 (STARLINK-32114)
卫星状态:
在轨 (已飞行776 天)
发射日期:
2024-07-28 UTC
国别 :
美国 (US)
星等 :
--
该卫星已列入 空间交会检测服务 Space Conjunction Data Service (SCDS) ,当前飞行风险评估等级: 无高风险
轨道信息
数据来源 国际轨道数据 AOE轨道数据
星历时间 2026-09-11T15:34:57+0800
18小时前
查看轨道信息
2026-09-10T14:00:00+0800
1天前
查看轨道信息
半长轴 6848.871km 6848.909km
偏心率 0.0001204 0.0000997
轨道倾角 53.160° 53.159°
近地点辐角 85.406° 73.341°
升交点赤经 269.292° 274.258°
平近点角 274.708° 165.735°
近地点 469.909km 470.089km
远地点 471.559km 471.455km
周期 94.013分钟 94.014分钟
每日圈数 15.317023 15.316894
详细信息
卫星平台:
Starlink v2.0 mini
运营商:
太空探索技术公司
运营商所在国:
美国
制造商(研发单位):
太空探索技术公司
制造商所在国:
美国
使用方式:
暂无
卫星简介
星链(Starlink)计划是由太空探索技术公司(SpaceX)提出的一个巨型低轨卫星互联网星座项目,计划在2019年至2024年间在太空搭建由约1.2万颗卫星组成的“星链”网络,其中1584颗将部署在地球上空550千米处的近地轨道,并从2020年开始工作。该卫星仍在工作。
2D轨道图
3D轨道图
轨道高度分析图
轨道倾角分析图
轨道综合分析图
查看轨道综合分析图
交会数据列表
事件ID 空间交会对象 最接近时刻(TCA) 交会距离 交会风险概率(CRP) 交会风险指数(CRI) 操作
CDM_260913-064106-028706-975121
2026-09-13T
06:41:15+0000
2.022 km
极远距离
2.765003E-6 低风险 0.44
CDM_260913-140904-809706-028721
2026-09-13T
14:09:18+0000
1.962 km
极远距离
2.247485E-6 低风险 0.42
CDM_260912-101706-028706-974721
2026-09-12T
10:17:33+0000
2.217 km
极远距离
2.226098E-6 低风险 0.42
CDM_260905-125406-028706-581221
2026-09-05T
12:54:16+0000
2.307 km
极远距离
2.044918E-6 低风险 0.41
CDM_260914-084206-028706-519621
2026-09-14T
08:42:32+0000
2.742 km
极远距离
1.431867E-6 低风险 0.38
CDM_260912-005006-028706-913421
2026-09-12T
00:50:44+0000
2.849 km
极远距离
1.427187E-6 低风险 0.38
CDM_260913-163004-809706-028721
2026-09-13T
16:30:13+0000
2.527 km
极远距离
1.314268E-6 低风险 0.37
CDM_260906-014206-028706-050421
YAM-7 (60504)
2026-09-06T
01:42:37+0000
2.988 km
极远距离
8.872579E-7 极低风险 0.34
与全量物体交会距离演化趋势
与全量物体交会风险概率演化趋势